"Pseudo-MPEC" for KAO001

Created 2025 Nov 16 12:35:23 UT using Find_Orb

Click here for an explanation of pseudo-MPECs

 
 Astrometry: 
     KAO001 *KC2025 11 14.86206 05 15 01.22 +21 25 04.4    ~BFBo 17.8 GVNEOCP088
     KAO001  KC2025 11 14.86636 05 15 01.21 +21 25 05.9    ~BFBo 17.7 GVNEOCP088
     KAO001  KC2025 11 14.87066 05 15 01.16 +21 25 07.4    ~BFBo 17.8 GVNEOCP088
     KAO001  KC2025 11 14.87496 05 15 01.27 +21 25 08.9    ~BFBo 17.8 GVNEOCP088
     KAO001  KC2025 11 14.87926 05 15 01.37 +21 25 10.1    ~BFBo 17.4 GVNEOCP088

Station data:
(088) Kottomia  (N29.934010 E31.827690)  Egypt.  Observers A. Taky, M.
   Aboueisha. Measurer L. Elenin. 1.88-m f/4.9 reflector + CCD.

Orbital elements:  KAO001
   Perihelion 2025 Oct 19.713520 +/- 46.6 TT = 17:07:28.1 (JD 2460968.213520)
Epoch 2025 Nov 15.0 TT = JDT 2460994.5   Earth MOID: 0.2912   Ma: 0.0029
M   7.879506251 +/- 31              (J2000 ecliptic)             AutoNEOCP
n   0.299755090 +/- 0.258           Peri.  323.805974 +/- 70
a   2.211184617 +/- 1.27            Node    74.694685 +/- 29
e   0.41956207 +/- 0.164            Incl.    1.628490 +/- 1.4
P   3.28804                H 18.68  G  0.15   U 11.8  SR
q 1.283455412 +/- 0.344    Q 3.138913821 +/- 1.88
From 5 observations 2025 Nov. 14 (24.8 min); mean residual 0".50
Residuals in arcseconds: 
251114 088  .66+  .09-    251114 088  1.2-  .05+    251114 088  .73+  .10-    
251114 088  .00   .02-    251114 088  .18-  .12+    

Ephemerides (geocentric):
Date (UTC) HH   RA             Dec           delta  r     elong  mag " sig PA
---- --------  ------------   ------------  ------ ------ -----  --- --------
2025 11 16 13  05 15 22.371   +21 33 32.54  .34868 1.3121 154.4 17.9  920  74
2025 11 16 14  05 15 22.806   +21 33 44.95  .34870 1.3121 154.4 17.9  950  74
2025 11 16 15  05 15 23.234   +21 33 57.35  .34871 1.3122 154.5 17.9  981  75
2025 11 16 16  05 15 23.658   +21 34 09.74  .34873 1.3123 154.5 17.9 1012  75
2025 11 16 17  05 15 24.075   +21 34 22.14  .34874 1.3124 154.6 17.9 1045  75
2025 11 16 18  05 15 24.487   +21 34 34.53  .34876 1.3125 154.6 17.9 1078  75
2025 11 16 19  05 15 24.893   +21 34 46.92  .34877 1.3126 154.6 17.9 1112  75
2025 11 16 20  05 15 25.294   +21 34 59.31  .34879 1.3126 154.7 17.9 1148  75
2025 11 16 21  05 15 25.690   +21 35 11.69  .34880 1.3127 154.7 17.9 1184  75
2025 11 16 22  05 15 26.079   +21 35 24.07  .34882 1.3128 154.8 17.9 1221  75
2025 11 16 23  05 15 26.463   +21 35 36.45  .34883 1.3129 154.8 17.9 1260  75
2025 11 17 00  05 15 26.842   +21 35 48.82  .34885 1.3130 154.8 17.9 1300  76
2025 11 17 01  05 15 27.215   +21 36 01.19  .34886 1.3131 154.9 17.9 1341  76
2025 11 17 02  05 15 27.583   +21 36 13.56  .34888 1.3132 154.9 17.9 1384  76
2025 11 17 03  05 15 27.945   +21 36 25.93  .34890 1.3132 155.0 17.9 1428  76
2025 11 17 04  05 15 28.301   +21 36 38.29  .34891 1.3133 155.0 17.9 1474  76
2025 11 17 05  05 15 28.652   +21 36 50.65  .34893 1.3134 155.0 17.9 1522  76
2025 11 17 06  05 15 28.997   +21 37 03.01  .34895 1.3135 155.1 17.9 1572  76
2025 11 17 07  05 15 29.337   +21 37 15.36  .34897 1.3136 155.1 17.9 1624  76
2025 11 17 08  05 15 29.672   +21 37 27.71  .34898 1.3137 155.2 17.9 1678  77
2025 11 17 09  05 15 30.001   +21 37 40.06  .34900 1.3138 155.2 17.9 1734  77
2025 11 17 10  05 15 30.325   +21 37 52.40  .34902 1.3138 155.2 17.9 1792  77
2025 11 17 11  05 15 30.643   +21 38 04.74  .34904 1.3139 155.3 17.9 1854  77
2025 11 17 12  05 15 30.955   +21 38 17.08  .34906 1.3140 155.3 17.9 1918  77
2025 11 17 13  05 15 31.263   +21 38 29.42  .34907 1.3141 155.4 17.9 1985  77
2025 11 17 14  05 15 31.564   +21 38 41.75  .34909 1.3142 155.4 17.9 2055  77
2025 11 17 15  05 15 31.861   +21 38 54.08  .34911 1.3143 155.5 17.9 2129  77
2025 11 17 16  05 15 32.152   +21 39 06.40  .34913 1.3144 155.5 17.9 2207  78
2025 11 17 17  05 15 32.437   +21 39 18.73  .34915 1.3145 155.5 17.9 2289  78
2025 11 17 18  05 15 32.717   +21 39 31.05  .34917 1.3145 155.6 17.9 2375  78
2025 11 17 19  05 15 32.992   +21 39 43.36  .34919 1.3146 155.6 17.9 2466  78
2025 11 17 20  05 15 33.261   +21 39 55.68  .34921 1.3147 155.7 17.9 2562  78
2025 11 17 21  05 15 33.525   +21 40 07.99  .34923 1.3148 155.7 17.9 2664  78
2025 11 17 22  05 15 33.784   +21 40 20.29  .34925 1.3149 155.7 17.9 2772  78
2025 11 17 23  05 15 34.037   +21 40 32.60  .34927 1.3150 155.8 17.9 2887  78
2025 11 18 00  05 15 34.285   +21 40 44.90  .34929 1.3151 155.8 17.9 3009  78
2025 11 18 01  05 15 34.527   +21 40 57.19  .34931 1.3152 155.9 17.9 3139  78
2025 11 18 02  05 15 34.764   +21 41 09.49  .34933 1.3152 155.9 17.9 3278  79
2025 11 18 03  05 15 34.996   +21 41 21.78  .34935 1.3153 155.9 17.9 3427  79
2025 11 18 04  05 15 35.223   +21 41 34.07  .34938 1.3154 156.0 17.9 3587  79
2025 11 18 05  05 15 35.444   +21 41 46.35  .34940 1.3155 156.0 17.9 3759  79
2025 11 18 06  05 15 35.660   +21 41 58.63  .34942 1.3156 156.1 17.9 3944  79
2025 11 18 07  05 15 35.871   +21 42 10.91  .34944 1.3157 156.1 17.9 4145  79
2025 11 18 08  05 15 36.076   +21 42 23.19  .34946 1.3158 156.1 17.9 4362  79
2025 11 18 09  05 15 36.276   +21 42 35.46  .34949 1.3159 156.2 17.9 4599  79
2025 11 18 10  05 15 36.471   +21 42 47.72  .34951 1.3160 156.2 17.9 4857  79
2025 11 18 11  05 15 36.660   +21 42 59.99  .34953 1.3160 156.3 17.9 5141  79
2025 11 18 12  05 15 36.844   +21 43 12.25  .34956 1.3161 156.3 17.9 5453  79